Wind_Speed
10 10 10 10 10 10 10 10 10 10 10 10 10 10 10 9 9 8 7 7 8 10 13 14 15 15 14 14 14 12 9 7 6 4 3 3 6 9 10 12 15 19 19 19 19 17 15 15 16 15 13 12 9 9 8 7 8 5 4 6 4 5 4 3 4 5 10 11 8 9 7 6 7 6 7 9 11 11 11 10 10 9 9 10 10 9 8 7
11 11 11 11 11 11 11 11 11 11 11 11 10 10 10 10 10 9 9 8 7 8 10 13 15 15 16 15 15 14 11 9 7 3 3 4 8 11 10 9 13 17 19 20 20 19 17 15 15 14 12 13 11 9 8 6 6 6 5 5 4 5 2 4 5 7 8 9 9 8 8 6 6 5 6 8 9 10 11 11 11 10 10 11 10 10 9 8
11 11 11 11 11 11 12 12 12 12 11 11 11 11 11 11 10 10 9 9 8 8 8 10 13 15 16 16 17 16 13 10 6 3 4 5 7 11 11 10 12 16 19 21 22 21 18 17 17 15 15 15 13 10 8 6 6 5 3 3 4 4 1 5 6 8 7 8 9 8 9 8 6 6 5 6 7 7 9 11 10 10 11 10 10 10 10 9
11 11 11 11 11 12 12 12 12 12 12 12 12 11 11 11 11 10 10 10 9 8 8 8 10 13 15 17 18 17 15 11 6 6 8 6 6 10 11 11 12 15 19 21 22 22 19 18 18 18 17 16 13 10 7 5 6 3 2 2 2 2 1 5 7 8 7 8 9 8 9 9 7 6 6 6 6 7 8 10 10 10 11 9 10 11 10 9
11 11 11 11 11 11 11 12 12 12 12 12 12 12 11 11 11 11 10 10 9 9 8 8 8 10 12 15 17 17 17 11 8 10 9 7 8 8 11 12 12 15 19 20 22 22 20 19 18 18 17 15 13 9 6 4 3 1 2 3 2 1 3 4 7 7 9 9 9 9 9 10 9 8 7 8 8 8 8 9 9 10 11 10 10 11 10 9
11 12 11 11 11 11 11 12 12 12 12 13 13 12 12 11 11 11 11 10 10 9 9 9 8 9 10 12 15 17 18 14 11 12 10 10 10 8 10 12 13 15 17 18 20 21 21 19 18 17 16 15 12 9 6 6 3 2 4 1 1 3 3 4 5 6 8 7 7 9 10 10 10 9 9 9 10 10 9 9 9 9 11 10 10 10 9 9
11 12 12 12 12 12 12 12 12 12 12 12 13 13 12 11 11 11 11 11 10 10 9 9 8 9 9 10 12 13 17 16 13 13 12 12 12 10 10 11 13 14 14 16 19 20 21 20 19 18 17 16 12 9 8 4 5 6 7 6 4 7 7 6 6 6 6 6 8 9 10 10 11 10 10 10 11 12 9 8 9 9 11 11 10 10 10 11
11 11 12 12 12 12 12 12 12 12 12 12 12 13 13 12 12 11 12 11 11 10 10 10 9 9 9 9 9 10 13 14 15 17 16 14 14 13 11 11 12 13 14 16 18 20 22 21 20 20 19 18 14 10 7 5 11 17 12 7 5 8 8 7 7 5 6 7 8 9 9 10 11 10 11 11 12 13 11 9 10 10 11 11 11 10 10 11
11 11 12 12 13 13 13 12 12 12 12 12 12 13 13 13 12 12 12 12 12 11 11 11 10 10 9 9 9 8 10 11 16 20 18 15 16 16 14 12 11 13 15 16 18 20 23 22 21 23 21 20 18 12 7 9 14 16 13 12 10 9 10 9 7 6 7 8 8 9 8 9 10 10 11 11 12 14 12 10 11 11 12 12 11 11 10 11
13 13 13 14 14 14 14 14 13 13 12 13 13 13 13 13 13 13 13 13 12 12 12 11 11 11 10 10 9 8 9 10 13 18 19 17 17 17 16 15 13 13 15 17 18 18 21 22 23 24 24 25 20 12 9 10 13 13 13 17 13 12 12 10 8 8 8 7 8 8 7 8 8 9 11 11 11 13 13 11 12 12 12 12 11 11 10 12
15 15 15 15 16 16 16 16 15 14 14 14 13 13 13 13 14 14 13 14 13 13 13 13 12 12 11 10 9 9 10 9 10 14 17 19 19 18 18 17 15 15 16 18 19 18 20 23 25 26 27 29 23 15 14 14 15 13 12 16 12 12 13 12 10 9 9 8 8 8 8 8 7 9 10 10 11 12 12 11 11 12 12 12 11 11 11 13
17 17 17 17 17 17 17 17 16 16 15 15 15 14 14 14 14 14 14 15 14 14 14 14 14 13 12 11 9 10 12 10 10 11 13 17 20 20 20 19 18 16 16 18 20 20 21 24 28 28 27 28 26 18 8 9 15 16 15 16 14 17 13 12 12 10 9 9 10 10 10 9 8 8 9 8 10 11 11 11 11 12 12 11 11 11 12 14
20 19 19 19 19 19 19 19 18 17 17 17 16 16 16 15 15 15 15 16 16 15 15 15 15 14 14 13 10 11 13 10 10 10 10 13 17 20 21 21 21 19 18 19 21 23 23 26 29 29 28 27 26 19 5 6 13 21 23 18 12 19 16 12 13 11 8 10 12 11 10 10 9 9 10 9 9 10 10 9 10 10 11 11 11 11 12 13
22 22 22 21 21 21 21 21 20 19 18 18 18 17 17 17 17 17 17 17 17 17 17 16 16 15 15 14 11 12 13 11 11 11 10 11 13 18 21 22 23 22 20 19 21 24 25 27 29 29 29 26 24 22 19 14 15 22 21 14 16 18 16 15 14 11 10 14 16 11 12 12 10 11 12 10 9 9 9 8 8 8 10 11 12 12 11 11
24 24 23 23 23 22 22 22 22 21 20 19 19 18 19 18 18 18 18 18 18 18 18 18 18 16 16 16 14 13 13 13 12 12 11 11 11 14 18 22 24 24 23 22 21 24 26 27 28 28 28 26 24 26 26 18 14 19 17 13 14 15 12 14 13 10 12 18 17 12 13 12 10 12 13 11 10 10 8 7 8 8 9 11 12 12 11 10
24 24 24 24 24 23 23 24 24 23 22 22 21 20 20 20 19 19 19 19 19 19 19 19 19 18 17 17 16 15 13 14 14 13 12 11 11 12 15 19 23 25 25 24 23 23 26 28 28 27 27 28 27 27 28 22 15 17 18 17 16 12 8 11 12 12 16 20 17 13 14 13 13 14 14 12 11 11 9 7 8 9 10 10 11 11 11 10
23 24 25 24 24 24 24 24 25 25 25 24 24 23 22 22 21 20 20 20 20 21 21 21 20 19 20 18 17 17 15 14 16 15 14 12 12 12 13 16 20 25 26 26 26 25 26 28 29 28 27 28 28 28 31 29 21 18 19 18 16 14 11 9 12 16 20 22 17 14 15 15 15 15 14 13 12 11 10 8 8 8 10 11 11 11 12 11
23 24 25 25 25 24 24 25 25 25 26 25 25 26 25 24 24 23 21 21 21 22 22 22 20 21 22 18 17 19 16 14 17 17 15 14 13 12 14 15 17 22 27 29 28 27 27 27 29 30 29 28 29 30 30 29 24 17 15 14 13 13 14 15 16 17 20 21 18 17 17 15 16 16 13 12 12 12 11 10 8 8 9 11 11 11 12 11
24 25 26 27 27 26 25 26 25 26 26 25 25 26 26 25 26 25 22 23 23 22 23 21 19 22 23 18 18 21 17 15 18 18 17 16 15 13 14 15 17 19 24 28 29 29 28 28 30 30 28 27 26 29 25 22 22 17 13 14 10 9 16 20 23 20 17 18 17 17 17 16 16 17 14 12 13 13 12 12 10 8 8 10 11 12 12 11
25 26 27 29 29 28 27 27 27 26 27 27 26 26 26 26 27 26 23 25 25 24 24 22 20 22 24 21 20 21 19 18 19 20 19 17 17 15 14 15 17 18 20 24 28 30 31 31 32 28 25 25 24 26 23 20 22 19 16 16 14 13 17 19 22 25 20 17 19 18 18 18 17 18 18 13 13 13 13 13 11 9 9 9 11 12 12 12
25 26 28 29 31 30 29 28 28 28 28 29 28 28 27 27 28 26 24 25 26 27 26 24 22 22 25 24 21 20 21 19 20 22 21 19 18 17 16 16 17 17 18 21 26 30 34 33 31 26 24 25 25 26 24 22 24 22 18 17 19 18 18 16 16 25 27 19 18 20 19 19 18 19 20 16 14 14 14 14 12 11 10 10 11 12 13 13
27 27 28 29 31 31 30 30 30 30 30 30 30 30 29 29 29 28 27 25 26 29 27 26 25 22 25 27 22 21 22 20 21 24 23 20 19 19 19 18 17 17 18 21 25 28 32 31 28 26 25 26 27 28 25 23 27 27 22 20 22 19 18 18 14 23 31 20 17 22 20 21 21 20 21 18 15 15 15 15 14 14 12 12 12 12 14 14
29 29 30 31 32 32 32 31 31 31 31 31 31 31 31 31 31 30 30 26 25 29 28 26 27 24 25 28 25 24 22 21 24 26 24 21 20 21 21 20 19 19 20 22 23 25 26 25 26 27 27 28 28 28 27 27 30 30 26 25 24 20 19 19 14 20 32 28 24 25 23 23 22 21 21 19 17 16 17 17 16 16 14 14 14 13 14 15
33 32 32 32 33 34 34 33 33 33 32 32 32 32 32 32 33 32 32 30 26 27 29 27 26 25 25 28 29 26 22 24 27 26 25 22 22 25 23 20 21 22 21 21 21 23 21 21 26 29 29 30 29 29 31 32 31 31 29 28 26 23 20 19 16 19 29 32 29 27 25 25 24 23 23 21 19 18 18 18 18 17 16 16 15 15 16 16
36 36 35 34 34 35 35 35 35 34 34 34 33 33 33 32 33 33 32 33 28 27 31 29 27 26 25 28 29 27 27 28 27 26 26 24 24 27 25 23 24 23 22 21 22 23 20 21 27 30 31 31 31 31 32 32 31 32 32 29 26 22 17 18 18 20 27 29 26 23 25 25 25 25 25 23 22 22 20 19 20 19 18 17 17 17 18 18
39 38 37 37 36 37 37 36 36 36 36 35 34 35 35 34 34 33 33 34 30 28 31 30 28 26 25 26 27 29 31 29 25 27 29 26 25 28 27 27 26 23 22 23 23 23 21 22 27 30 31 33 34 33 32 32 33 34 32 29 28 24 20 22 21 24 32 32 27 26 27 26 26 27 27 26 26 26 23 22 22 21 19 18 17 18 18 18
40 38 38 38 38 39 40 40 37 37 36 35 36 36 36 36 36 35 34 34 32 30 30 30 29 28 26 27 28 29 31 30 27 29 29 26 26 29 30 29 27 24 23 25 26 24 21 21 25 29 32 35 37 36 33 31 34 35 30 28 29 28 25 23 20 26 33 34 34 31 29 29 28 28 28 28 29 28 26 25 23 22 21 20 19 20 20 20
43 42 41 41 41 40 41 43 42 41 39 37 37 38 37 37 37 36 36 37 36 32 30 29 30 31 31 32 30 30 32 32 30 29 29 29 29 31 32 29 27 26 25 27 27 24 21 22 24 28 31 33 36 37 33 31 34 34 30 29 28 27 28 24 23 27 30 32 31 28 27 28 29 30 30 29 30 31 30 27 23 23 23 22 22 22 21 21
46 46 45 44 44 43 42 44 46 46 45 42 41 40 40 40 39 39 40 40 36 34 33 31 31 32 34 34 31 31 34 33 32 32 32 32 30 31 32 29 29 29 28 30 28 25 24 24 25 28 29 29 32 36 34 33 35 34 31 30 28 28 28 26 26 28 30 35 34 31 32 31 30 32 32 32 31 31 30 26 25 27 25 23 24 24 23 22
50 50 49 47 47 46 45 45 47 48 48 48 47 45 44 43 42 42 44 42 36 35 38 36 34 33 33 34 31 32 34 31 33 37 35 31 30 33 33 31 32 33 32 32 30 27 27 26 27 29 27 26 30 35 36 36 36 34 33 32 30 30 30 30 29 26 32 40 39 34 32 32 32 32 33 34 32 28 27 26 27 27 25 24 24 24 24 24
53 52 52 50 49 49 48 48 48 48 50 50 49 49 48 46 46 47 47 42 38 40 42 40 38 36 35 34 33 34 35 33 35 40 37 32 33 35 35 34 35 35 35 35 33 29 27 28 29 29 27 27 31 35 39 39 36 35 36 34 32 31 29 32 33 30 33 39 38 34 30 31 33 30 30 33 31 26 26 26 26 25 25 25 24 23 24 24
55 55 54 54 53 52 52 52 50 50 51 52 51 51 50 49 50 51 47 42 42 43 44 44 42 40 37 36 36 37 36 35 38 41 38 34 36 37 37 35 35 36 35 34 32 30 29 28 28 29 27 28 31 35 38 38 36 37 39 36 34 34 32 34 36 36 37 36 33 30 28 31 34 30 29 29 28 28 29 28 26 26 28 26 22 22 24 25
57 57 57 57 56 54 53 54 53 52 52 53 54 53 52 53 53 51 46 45 46 43 42 46 46 44 41 38 38 39 38 37 39 42 40 37 38 39 38 36 37 38 36 33 32 32 33 31 30 32 29 29 32 33 34 39 41 43 44 41 38 38 38 38 40 40 38 34 30 27 29 35 37 34 33 31 28 28 29 29 29 29 30 26 20 21 25 26
59 59 59 59 58 57 55 54 54 54 54 54 56 55 56 57 54 50 48 47 47 44 44 47 47 46 45 41 39 39 40 40 40 42 43 41 41 42 42 39 39 39 36 36 37 37 37 36 34 33 30 30 32 30 30 38 44 44 42 43 43 42 43 42 39 36 33 31 31 30 33 37 34 29 28 29 31 30 27 27 29 31 31 28 25 26 27 26
61 62 62 61 61 60 58 57 56 56 56 56 57 58 59 58 54 51 51 49 48 47 46 47 47 48 48 46 43 40 40 41 41 42 44 44 44 44 44 41 39 39 38 38 40 39 39 39 36 31 30 30 30 28 29 35 41 42 39 43 47 45 46 44 36 30 29 30 32 31 32 33 29 27 26 26 27 29 29 26 26 30 30 28 29 28 25 23
63 63 63 63 62 62 62 61 59 59 59 59 60 61 59 57 54 53 52 51 51 50 48 48 49 50 50 49 48 45 42 40 41 43 46 47 47 45 44 43 40 40 40 39 39 38 38 38 37 35 33 33 32 30 30 33 37 38 38 44 48 45 44 43 38 32 30 32 32 30 30 29 29 31 30 28 27 27 28 25 24 26 26 26 30 28 22 20
65 65 64 64 64 64 64 62 61 61 61 62 64 63 60 58 57 56 54 53 54 54 53 53 53 53 52 51 50 49 46 43 42 44 47 49 50 48 45 44 43 42 40 39 37 38 37 34 33 37 36 34 33 32 32 34 35 36 39 43 44 44 44 44 43 38 34 36 34 30 31 30 31 33 28 25 26 26 27 25 23 23 22 23 28 28 23 21
68 67 66 67 67 66 65 63 62 63 63 65 66 63 62 61 60 59 57 57 57 58 58 58 57 55 53 53 53 49 47 48 46 45 46 49 52 51 48 45 45 44 41 39 38 38 38 33 28 32 35 35 35 35 34 34 35 37 40 39 37 42 47 47 47 43 38 41 38 30 30 30 29 30 28 25 22 22 26 27 26 24 21 21 23 24 25 22
71 69 68 69 69 68 67 66 64 64 65 67 66 64 63 62 61 60 60 60 61 61 62 61 60 59 57 55 55 49 45 48 49 46 47 50 51 52 52 48 46 46 44 41 39 38 39 38 32 27 28 33 39 41 39 35 35 38 40 37 32 38 45 47 47 46 42 42 37 31 31 30 27 26 27 28 27 25 26 25 26 26 24 22 19 20 27 24
74 72 69 69 70 71 70 68 67 67 67 67 65 64 63 61 61 62 61 62 63 64 64 64 63 63 61 59 57 51 42 39 42 44 47 50 50 51 53 52 48 46 47 46 42 38 38 41 38 28 24 33 44 46 40 36 35 37 42 44 38 37 41 44 45 46 46 44 38 35 35 32 25 22 25 26 28 31 28 24 29 29 27 25 17 18 30 28
75 73 70 69 70 72 72 69 67 68 68 67 65 63 63 62 62 62 62 64 66 66 67 67 67 67 65 62 60 54 45 38 37 40 44 47 49 47 48 53 52 46 45 49 48 43 40 42 42 34 29 35 45 45 40 37 35 35 39 45 45 39 35 38 43 44 45 46 41 36 36 34 26 21 24 26 27 34 33 29 30 28 28 30 23 24 36 34
76 73 70 68 69 70 70 69 67 67 69 69 67 65 63 63 63 63 64 66 68 69 70 70 70 70 69 66 62 56 50 44 41 38 38 44 48 46 43 46 49 46 43 47 51 49 43 41 44 43 38 35 35 38 40 41 38 35 36 41 47 46 37 34 41 44 42 42 41 38 38 35 27 23 24 26 29 31 30 26 23 21 25 28 25 30 37 35
76 73 68 64 64 67 69 69 67 66 68 67 66 65 64 63 64 64 65 68 70 71 72 73 72 72 72 70 65 62 57 52 48 42 38 41 44 44 43 40 40 41 42 42 46 50 48 44 44 47 45 39 30 30 38 42 42 41 39 39 43 49 47 42 40 40 41 43 41 41 44 41 30 25 25 26 29 28 25 23 22 20 22 21 20 27 32 31
75 71 65 59 60 64 67 68 66 64 64 64 64 65 64 65 65 66 68 70 71 73 74 74 73 72 72 71 69 68 64 60 57 52 46 40 36 38 40 37 34 37 39 40 42 46 51 50 47 47 50 46 37 32 37 43 45 45 43 40 40 42 48 51 43 34 37 44 43 41 43 42 35 29 27 28 28 26 25 26 24 22 21 19 20 27 33 35
72 68 62 56 55 59 62 64 63 63 62 62 64 65 65 68 68 69 71 72 73 74 73 72 72 71 71 71 71 71 69 66 64 62 55 45 36 36 36 33 34 36 36 39 41 42 48 51 50 51 53 53 48 42 41 43 45 46 43 40 40 38 41 49 50 42 38 40 41 43 43 39 36 33 30 29 27 24 27 30 26 24 25 26 29 33 37 39
67 64 58 54 53 55 58 59 61 63 63 63 66 67 69 72 73 74 75 75 75 73 70 68 68 70 72 73 73 72 70 69 68 66 62 54 45 40 36 32 33 37 37 40 42 41 43 48 52 54 53 52 51 46 42 40 42 46 45 41 40 40 39 43 49 53 51 43 36 40 43 40 36 34 32 31 29 27 29 30 26 26 28 31 34 38 37 36
60 59 55 53 52 53 54 55 55 56 58 59 62 66 69 72 73 74 75 76 74 68 63 62 61 61 64 69 73 70 65 67 69 67 66 62 52 40 35 38 40 41 41 41 41 41 40 42 48 55 54 50 48 44 37 34 37 41 44 43 40 39 39 41 45 50 54 52 45 41 42 44 42 36 32 33 32 30 31 33 27 28 32 33 35 38 36 31
53 53 51 51 52 50 50 51 49 47 47 49 53 58 63 67 70 69 68 70 70 65 63 67 66 60 55 55 60 63 59 62 69 68 65 66 61 45 33 37 42 44 44 43 44 45 41 36 38 47 52 50 49 45 36 32 34 36 36 37 39 39 38 40 44 45 48 54 56 51 44 44 47 44 37 35 33 32 34 36 33 31 34 35 38 40 38 35
49 49 48 48 47 42 40 43 45 45 44 44 47 50 52 58 62 62 60 61 63 62 64 70 72 69 67 64 64 66 64 61 68 72 66 64 66 54 40 38 40 41 42 42 46 51 45 36 34 36 38 38 43 48 44 35 31 32 32 31 33 36 36 37 41 45 48 52 53 52 48 46 48 49 44 39 34 32 34 37 38 36 33 33 38 39 35 35
44 45 42 40 37 34 33 34 37 42 42 43 45 45 44 48 50 52 55 58 60 60 62 67 69 69 72 72 69 69 70 67 70 77 75 69 68 63 55 48 42 40 40 36 42 55 54 47 46 45 40 36 38 44 48 44 36 32 34 35 33 33 32 33 37 41 45 46 44 47 52 54 53 51 47 45 41 35 35 35 35 35 32 30 36 39 35 32
38 36 34 32 30 29 29 28 30 34 38 40 43 44 43 44 42 43 50 56 58 59 60 63 64 64 65 67 66 68 72 73 72 75 79 78 75 71 67 60 49 41 39 35 39 52 58 56 54 53 51 48 41 37 41 45 43 40 38 37 35 34 32 29 35 39 40 43 43 44 49 52 54 54 50 46 44 42 43 41 35 32 32 31 33 39 42 37
30 28 27 27 25 23 24 25 24 27 31 35 39 42 44 45 44 43 48 57 60 58 59 61 61 60 60 63 66 69 70 71 71 71 74 79 80 74 69 68 60 47 38 36 38 45 53 58 58 54 54 54 49 41 35 36 41 46 49 44 37 34 32 31 34 38 36 37 42 44 45 46 47 47 46 46 47 47 47 47 41 34 31 32 32 35 42 43
Wind_Direction
346 348 350 350 349 346 342 340 335 332 327 323 320 318 318 318 318 318 316 305 285 263 251 243 236 233 235 241 241 238 237 239 248 254 270 218 186 201 209 207 205 205 206 201 198 198 193 186 179 179 178 176 187 178 181 182 166 191 148 125 133 102 85 249 233 217 258 289 305 298 300 292 279 250 226 233 245 245 238 237 235 229 226 229 223 218 215 213
335 337 340 343 345 346 346 344 342 339 334 330 325 320 317 316 314 313 314 313 308 290 267 253 244 237 234 237 241 241 236 237 243 254 276 227 204 217 224 212 205 205 207 203 199 200 193 186 186 182 179 182 194 186 178 178 171 188 154 146 158 102 21 263 246 249 261 289 296 294 293 285 283 265 238 236 239 240 239 237 239 234 228 229 227 221 213 209
330 330 330 332 334 337 340 341 343 341 339 336 331 327 322 318 314 312 311 310 310 307 295 272 255 245 237 235 240 242 239 236 237 242 244 232 214 219 224 217 207 203 206 205 202 203 194 186 190 188 188 188 189 183 170 174 175 174 146 167 167 108 356 270 261 261 261 281 290 288 281 276 277 268 248 236 233 231 227 231 238 241 238 235 231 224 213 205
327 327 327 327 327 327 328 331 335 336 338 337 335 333 328 324 318 315 312 309 307 306 306 296 277 259 247 239 239 242 242 236 227 233 231 226 224 223 224 220 211 204 205 208 206 207 200 191 194 194 192 186 181 180 172 180 167 144 58 94 180 130 105 284 274 272 272 271 277 277 269 263 262 262 249 239 237 229 224 230 235 236 242 244 236 225 216 206
324 325 325 326 325 324 323 323 324 326 329 330 333 333 332 330 323 320 316 312 309 306 303 300 295 280 263 249 241 241 243 237 222 229 223 219 229 226 227 224 217 210 207 210 209 210 208 201 201 197 195 189 177 165 166 207 195 214 331 61 2 308 155 247 268 276 280 270 270 274 267 256 252 253 250 247 245 234 229 239 236 232 242 246 234 225 221 212
321 321 322 323 322 323 322 322 320 319 321 321 324 326 329 331 327 325 320 317 313 310 307 299 295 291 283 267 253 244 244 239 229 232 223 222 230 226 229 225 221 218 212 212 212 212 211 209 207 201 200 199 183 163 190 241 216 198 271 237 253 261 214 249 267 266 273 273 269 270 269 260 251 248 250 251 251 247 237 242 244 236 242 242 234 227 224 220
319 319 319 319 318 319 319 319 319 317 316 314 315 317 321 325 326 327 323 322 317 314 310 303 299 291 288 285 272 256 247 241 237 239 227 222 230 228 227 225 224 225 219 214 215 214 213 212 210 205 203 206 202 197 207 250 284 277 269 245 232 237 235 264 282 263 256 268 273 276 272 259 252 247 250 249 251 259 255 250 251 244 240 235 233 228 223 223
317 318 319 319 318 317 316 316 316 316 314 312 310 310 312 315 318 321 322 323 320 318 312 306 304 296 291 289 286 276 259 245 237 238 229 220 227 232 228 224 222 224 222 216 215 214 213 212 211 209 207 207 208 215 212 198 257 275 268 236 253 256 247 263 277 258 248 267 273 278 275 256 251 243 243 247 248 259 261 255 252 244 238 231 229 227 219 219
311 314 315 316 316 317 315 315 314 313 312 310 308 306 306 307 309 311 314 317 318 319 315 310 306 301 299 292 291 288 272 251 237 240 236 223 225 233 231 227 221 219 219 217 216 214 213 212 210 212 209 210 214 228 231 188 215 251 270 273 273 260 257 260 264 262 256 270 272 273 277 255 246 239 238 243 248 257 260 256 251 240 238 236 230 225 213 206
304 305 307 308 310 311 312 312 312 311 309 307 305 304 303 302 302 304 305 308 311 314 313 313 309 304 301 297 297 288 275 262 247 244 242 232 226 230 233 230 223 219 217 216 217 215 214 211 211 213 210 213 220 219 203 199 212 218 254 278 269 248 257 259 261 268 257 258 262 261 265 251 238 236 241 242 246 255 259 255 245 237 237 238 233 227 214 198
297 298 299 300 302 305 306 307 307 308 306 304 302 300 300 300 299 298 299 299 301 304 306 308 309 307 304 300 299 288 280 275 261 252 246 239 231 228 233 233 227 222 217 215 216 215 214 212 213 215 214 216 221 215 202 213 217 203 240 267 267 258 256 259 263 252 245 252 255 246 243 245 235 236 246 247 245 250 254 250 239 234 235 233 231 228 215 196
292 293 294 295 296 299 301 303 304 304 303 302 300 298 297 297 296 296 295 294 295 296 297 299 301 303 304 303 299 289 286 282 270 262 251 244 237 230 231 235 232 226 220 216 214 214 213 213 216 217 218 220 222 226 245 254 219 199 223 253 292 297 265 255 265 243 230 240 240 235 235 238 237 243 251 249 246 251 253 246 237 232 232 229 227 224 214 195
290 291 291 292 293 295 297 299 301 302 302 300 299 297 295 294 294 293 293 293 292 291 291 292 293 295 297 299 301 291 288 286 274 269 260 250 242 234 230 233 235 231 225 220 215 214 213 214 219 219 220 223 223 219 210 279 232 194 195 211 254 281 278 272 265 241 212 231 237 229 234 236 234 246 257 255 245 249 254 247 238 231 227 225 223 222 211 196
287 289 289 290 291 293 294 295 297 298 299 299 298 297 296 294 292 291 291 291 291 290 289 288 287 288 289 292 295 290 290 289 278 272 265 256 248 240 232 230 234 236 231 227 220 217 216 217 220 221 222 224 225 216 199 212 223 195 195 212 205 216 256 274 258 234 213 240 246 226 232 239 235 248 258 258 246 244 252 247 241 231 226 222 219 217 207 202
286 287 288 289 290 291 292 293 294 294 295 295 296 297 296 295 293 291 289 288 288 288 288 287 285 284 283 285 285 285 289 289 283 276 269 261 253 246 237 231 231 235 235 232 227 222 219 222 223 223 224 225 224 224 220 216 212 205 212 239 224 201 222 239 232 219 210 237 248 225 230 241 244 255 258 253 242 244 249 245 242 229 226 223 216 213 204 203
285 286 286 287 288 289 290 290 291 291 291 292 292 292 293 294 294 292 290 288 287 286 286 285 284 284 281 281 281 281 281 281 281 278 274 267 258 251 245 238 232 232 236 236 233 228 224 224 226 226 224 224 223 225 232 228 213 222 219 212 232 241 221 215 218 217 212 227 239 227 227 239 246 250 252 248 237 241 248 245 242 229 226 226 216 212 205 197
286 287 287 287 287 288 288 288 289 290 290 290 290 289 289 290 290 290 290 290 287 285 283 282 284 285 281 278 281 279 276 275 277 278 276 269 261 254 249 244 235 231 233 236 235 233 230 228 228 228 227 226 225 223 228 231 221 222 222 202 205 226 236 233 213 212 222 228 233 231 229 236 246 246 245 242 232 236 245 245 246 234 226 226 220 214 208 198
287 287 287 287 286 287 287 287 288 288 289 289 290 289 289 288 287 286 288 288 285 283 282 282 285 283 280 280 279 275 272 272 274 276 276 272 265 257 250 248 242 235 232 233 235 235 234 233 230 228 227 227 226 224 224 230 230 216 218 214 190 202 232 241 229 222 233 239 235 233 235 236 245 253 251 244 239 236 241 245 248 244 231 227 224 216 211 206
286 286 286 286 285 285 285 285 286 286 287 287 288 288 289 289 287 286 287 285 282 282 281 282 282 280 280 282 276 274 274 270 270 273 272 271 268 261 255 251 248 243 237 235 234 236 236 235 235 231 230 229 226 229 229 228 228 210 209 229 213 212 223 230 248 250 238 241 241 232 237 241 241 254 258 248 245 241 241 247 249 250 240 229 225 218 215 213
286 285 285 285 284 283 282 282 282 283 283 284 284 285 287 288 286 286 286 283 282 282 281 280 278 276 280 279 273 276 277 270 269 270 269 269 267 263 258 253 251 248 243 239 235 235 237 235 238 238 238 238 230 232 233 226 223 203 193 221 233 242 232 221 243 255 253 260 257 238 236 243 239 248 257 252 248 246 244 249 251 251 245 231 226 221 219 217
288 287 285 285 284 283 281 280 279 279 279 280 281 281 282 283 284 285 283 282 283 282 280 281 277 274 277 277 274 276 275 272 270 269 268 266 265 264 260 255 253 251 247 243 236 233 236 237 239 242 241 240 234 233 230 222 220 202 184 211 229 235 240 232 233 252 264 272 259 242 236 243 240 240 249 251 248 248 245 247 248 248 248 237 228 221 220 218
289 288 287 285 284 283 281 279 278 277 276 277 278 278 279 280 280 280 279 280 282 279 278 280 278 273 274 276 277 273 271 271 268 266 266 265 266 264 260 257 253 251 247 243 240 237 240 241 240 241 242 238 233 233 230 220 219 211 197 205 220 222 233 241 234 248 261 264 254 250 242 241 243 241 245 247 244 245 245 247 246 243 245 243 233 224 220 217
286 287 287 286 285 283 281 280 278 276 276 275 276 277 277 278 278 277 276 276 278 277 276 275 276 274 273 276 276 271 270 270 265 263 263 264 267 263 259 258 254 250 248 247 247 246 247 246 239 237 238 238 235 232 230 223 220 219 208 198 208 218 226 236 235 241 255 262 262 259 251 242 240 242 244 242 239 243 244 246 246 242 241 242 237 229 223 219
284 284 284 285 285 282 281 280 278 276 275 274 274 276 276 276 276 275 274 273 273 275 273 270 272 274 272 272 274 274 271 265 262 263 263 261 262 263 262 259 254 251 250 251 251 249 249 242 235 233 233 236 235 230 229 226 223 222 212 198 201 208 212 225 230 231 243 256 259 254 249 241 235 237 242 242 242 242 242 243 244 242 241 241 239 235 230 225
281 280 280 281 282 282 280 279 278 276 274 273 274 274 273 274 274 274 273 271 269 269 270 271 271 271 268 269 273 274 268 262 263 266 264 259 257 260 261 259 257 255 252 251 250 249 244 235 232 230 229 233 234 231 228 227 226 225 218 208 200 200 210 218 221 229 238 249 254 247 244 242 237 237 237 239 243 240 237 239 241 241 241 241 241 239 236 232
280 279 279 277 277 279 278 278 278 275 273 272 273 272 271 272 272 272 272 271 268 264 265 267 269 268 267 267 268 267 266 266 264 262 261 258 256 258 258 257 258 257 253 250 250 250 243 235 234 231 227 229 233 232 229 227 227 227 226 216 200 198 217 219 214 231 241 248 258 255 251 249 243 241 239 237 238 239 235 232 235 238 239 238 240 241 239 237
280 280 280 279 277 276 276 276 275 274 273 272 272 270 270 271 271 271 272 271 269 263 260 261 264 266 264 261 260 263 267 268 262 260 263 261 256 255 254 255 256 255 254 252 251 252 247 240 237 233 229 227 231 232 230 228 227 227 227 221 208 198 203 212 218 232 242 256 265 260 255 252 244 240 242 240 238 239 238 231 230 234 236 237 237 239 238 236
281 280 281 281 280 277 276 274 273 272 271 271 270 269 269 269 269 270 270 270 269 267 265 262 262 263 261 259 259 262 264 265 265 263 262 258 254 254 254 253 254 254 253 252 253 252 248 244 240 238 234 231 233 234 231 228 228 227 222 219 221 211 201 208 221 229 242 257 261 255 251 249 244 238 238 240 240 239 238 233 232 235 236 238 239 240 240 239
281 281 281 280 280 278 276 274 273 272 270 269 268 267 267 266 266 267 266 266 268 270 269 265 260 258 261 261 260 260 261 264 267 262 256 256 256 256 256 253 251 250 248 250 251 248 244 243 240 240 240 236 235 235 231 226 225 226 222 217 221 223 223 226 221 219 232 243 248 254 256 251 247 242 236 237 240 239 238 235 236 237 235 237 241 244 245 245
281 281 280 280 279 279 277 274 273 272 271 269 267 266 265 264 264 263 262 264 267 267 266 265 262 259 260 262 261 260 260 261 263 260 257 257 256 254 253 250 248 247 247 248 249 246 244 243 241 242 241 235 232 233 232 227 223 221 219 218 217 219 230 239 236 229 230 235 241 248 254 254 248 241 234 234 237 241 244 242 240 240 238 238 242 247 251 249
280 280 279 279 279 279 277 275 273 271 271 269 268 266 264 263 262 260 261 266 266 264 265 266 265 262 260 261 260 259 259 258 258 260 259 257 254 253 252 251 250 250 249 250 250 249 246 246 245 245 241 234 230 231 232 230 225 219 216 217 219 218 221 232 241 244 235 234 238 240 246 251 245 237 233 235 236 237 242 244 246 249 247 243 241 243 249 249
278 278 278 278 278 277 276 275 274 270 269 269 267 266 264 262 261 261 263 265 263 263 265 265 263 261 259 260 259 257 258 257 256 258 259 257 255 254 253 253 252 252 251 252 253 251 249 248 249 248 241 235 234 234 233 231 223 217 215 213 217 218 219 225 231 235 236 238 242 243 244 247 246 241 237 239 239 235 237 240 246 252 250 246 241 242 246 246
278 278 278 277 277 276 274 273 272 269 267 267 266 265 263 262 263 265 264 261 259 261 263 263 263 263 260 258 258 258 256 255 256 257 256 255 254 254 252 249 248 248 248 249 249 248 246 243 242 244 240 234 237 236 233 231 226 221 215 210 212 214 216 222 225 227 234 240 243 242 242 247 254 253 244 239 238 236 238 239 242 248 249 248 243 242 243 241
280 279 279 278 277 276 274 271 270 268 265 264 264 263 262 264 267 267 264 261 258 256 257 260 263 265 262 257 255 257 256 254 253 255 255 254 252 252 251 248 246 248 246 245 246 245 245 244 241 243 245 241 241 240 236 234 233 232 224 212 211 214 214 219 224 226 230 236 239 239 239 243 251 257 249 238 235 236 239 238 239 244 247 246 239 235 240 240
279 279 278 278 277 276 274 271 269 267 264 263 262 261 263 266 268 265 263 261 257 254 254 257 259 261 263 261 256 255 256 255 253 253 253 252 250 251 252 250 248 248 246 244 246 246 247 249 247 245 247 246 243 240 237 234 235 237 231 219 216 217 218 220 223 228 234 239 239 236 239 243 250 260 256 241 233 234 239 238 235 239 242 240 237 236 239 241
277 277 276 275 274 274 273 272 269 266 264 262 261 262 265 267 265 262 260 257 255 252 251 252 254 255 257 260 259 256 255 253 252 253 253 252 249 249 250 250 247 245 245 244 245 247 248 251 251 246 244 244 243 237 232 231 232 231 229 227 224 220 222 224 222 223 232 238 237 234 237 241 246 252 253 251 243 232 234 234 226 234 237 232 235 236 229 231
277 276 276 274 273 272 272 270 268 266 264 262 262 264 266 264 261 259 257 254 251 250 248 248 249 250 252 255 256 256 256 252 248 249 252 253 251 248 247 249 248 245 244 243 243 244 245 249 252 252 247 243 242 239 234 231 227 224 227 233 231 222 222 225 221 220 228 235 236 235 237 235 237 244 251 258 251 233 229 226 218 230 238 228 231 237 230 227
279 279 278 276 275 274 272 270 268 265 263 262 263 265 264 261 259 256 254 251 248 246 246 246 246 246 247 250 251 252 253 252 248 246 248 250 252 251 247 247 249 248 244 241 242 241 241 239 243 253 254 248 243 239 236 233 228 225 228 232 232 226 224 224 221 219 227 238 238 237 240 238 235 242 252 260 255 237 228 224 216 221 232 230 228 240 248 237
282 281 280 278 277 275 273 272 269 265 264 264 265 265 262 260 257 254 251 249 247 245 244 244 244 244 244 245 247 247 245 249 251 247 244 246 249 252 251 248 247 249 246 241 239 239 240 237 232 242 251 249 246 242 237 235 232 229 224 219 222 229 226 225 223 220 225 234 235 235 239 238 233 233 244 261 271 259 236 229 231 226 226 233 230 241 252 243
284 283 281 279 278 275 274 272 269 267 266 266 266 264 261 258 254 251 248 246 245 245 244 243 242 242 242 241 243 242 237 239 246 246 244 245 245 248 251 251 247 247 247 244 239 235 237 239 232 228 235 242 245 244 240 238 234 229 223 215 213 222 226 226 225 223 226 227 227 233 238 237 232 227 229 243 263 263 247 247 262 251 227 221 221 240 255 253
286 284 281 279 277 275 274 271 269 268 267 266 264 261 258 255 252 248 246 244 243 242 242 242 240 241 240 238 238 238 232 227 230 236 241 245 244 241 245 248 247 245 245 246 243 233 229 235 234 224 221 237 248 250 248 246 241 233 231 225 219 217 224 228 225 224 229 230 227 230 238 238 229 221 220 220 235 254 257 257 265 259 230 216 207 223 247 257
286 284 281 278 275 274 272 269 267 265 263 263 262 258 255 252 250 247 244 241 241 240 240 240 239 239 240 237 235 233 228 223 221 224 233 242 244 239 237 243 245 244 242 243 246 241 231 230 235 232 223 229 245 252 250 249 246 239 236 233 227 220 217 222 226 224 224 232 234 230 234 238 228 219 222 212 216 242 260 259 251 247 239 227 206 208 231 250
285 284 281 276 272 271 269 268 266 262 260 260 258 254 252 249 246 244 241 239 238 238 239 239 238 238 239 238 234 230 226 222 218 216 222 235 242 242 238 237 239 241 238 236 240 244 237 227 229 234 231 225 228 243 248 247 247 243 237 234 232 228 224 223 228 230 224 225 230 231 234 236 226 220 224 214 211 226 244 248 235 227 236 233 205 205 225 244
284 282 279 273 269 268 267 267 266 260 256 255 252 250 248 245 242 240 238 236 236 237 237 238 238 237 237 237 235 232 228 224 219 214 212 218 232 245 243 233 226 227 229 229 230 237 240 232 225 228 233 229 219 222 236 240 242 242 239 236 234 233 230 225 221 227 231 229 227 228 235 240 233 226 223 217 215 217 225 232 224 215 225 225 210 215 227 235
282 280 277 271 266 264 264 264 262 257 252 249 246 244 242 240 238 236 235 234 234 235 236 236 237 235 234 234 235 233 229 225 223 218 212 204 210 230 235 227 225 225 221 223 224 228 236 236 229 228 234 235 227 219 225 236 241 243 242 240 237 234 229 224 219 217 224 233 233 228 229 236 237 235 228 220 217 217 224 226 214 208 217 214 209 216 226 230
281 278 275 269 263 261 261 259 257 255 252 247 243 240 238 237 235 232 231 231 231 233 234 234 234 234 232 231 232 233 230 226 224 223 217 205 199 213 218 209 222 234 224 215 217 220 228 234 234 232 232 236 236 228 224 233 243 245 245 243 242 237 229 223 222 221 220 224 230 230 228 227 228 234 237 229 218 218 234 236 214 204 215 215 211 214 220 226
279 278 275 269 263 261 259 257 254 252 251 248 245 241 238 237 236 234 232 230 227 228 231 231 229 231 232 231 229 230 228 224 222 223 223 214 200 202 210 199 206 225 221 208 210 215 219 226 233 236 233 230 233 232 224 226 238 245 248 247 244 240 230 221 223 227 226 225 226 228 229 225 219 222 233 236 225 218 234 245 228 207 212 217 217 220 225 232
278 277 276 272 269 264 259 255 251 248 246 246 245 242 238 236 237 236 235 233 227 221 221 223 222 220 221 223 222 222 222 221 220 219 222 221 208 198 203 203 207 223 225 213 208 211 215 219 225 234 236 231 229 228 221 219 229 237 241 243 243 242 233 222 221 227 229 228 227 228 232 230 219 211 214 227 231 224 228 241 240 223 214 214 216 221 229 235
277 277 276 274 271 266 259 254 249 245 243 242 244 243 240 238 238 235 233 232 228 221 218 219 219 216 216 215 215 215 215 216 216 214 213 215 211 203 200 201 207 222 227 219 209 206 211 218 218 222 231 235 233 228 219 214 221 230 232 230 232 240 242 233 224 224 228 234 232 228 234 238 229 218 210 211 223 231 228 233 240 235 223 217 218 221 228 233
277 277 276 271 264 259 255 253 250 247 244 242 243 244 240 238 238 235 232 231 228 224 221 220 218 217 217 216 212 210 211 212 214 213 210 207 207 206 203 199 202 214 220 216 209 206 209 217 222 220 219 223 228 228 224 217 212 219 231 231 225 228 239 245 241 231 227 233 233 228 232 237 234 229 220 209 210 220 223 225 232 235 232 226 223 224 228 232
277 275 274 269 259 253 251 251 251 249 246 242 241 243 240 237 236 232 228 227 227 225 223 224 223 221 221 218 210 205 209 213 214 213 211 209 207 207 204 199 197 207 219 220 213 211 213 218 222 224 222 221 221 226 230 226 217 212 221 230 231 226 224 236 254 253 238 229 227 228 235 239 238 236 231 221 218 220 220 219 220 228 239 242 233 228 229 232
273 268 268 268 260 250 247 249 249 249 248 244 240 240 238 236 236 233 224 219 219 220 221 222 223 223 223 221 214 208 207 210 211 210 210 209 208 206 204 200 196 196 209 222 221 218 219 221 222 225 228 227 223 222 226 226 223 223 226 228 230 228 221 217 232 247 248 237 227 225 229 235 240 241 236 231 232 230 224 221 217 215 228 244 245 236 231 228
Height
5893 5892 5891 5890 5889 5889 5888 5887 5887 5886 5885 5885 5884 5884 5884 5883 5883 5883 5883 5882 5882 5882 5882 5882 5882 5882 5883 5882 5883 5883 5884 5884 5884 5885 5885 5885 5886 5886 5885 5885 5886 5887 5887 5887 5888 5889 5891 5894 5896 5897 5897 5897 5898 5898 5899 5899 5900 5902 5900 5900 5901 5899 5899 5901 5901 5901 5898 5896 5897 5896 5896 5897 5897 5897 5897 5897 5896 5897 5897 5897 5897 5898 5898 5898 5898 5899 5900 5901
5892 5891 5891 5890 5889 5888 5888 5887 5886 5886 5885 5884 5884 5883 5883 5883 5882 5882 5882 5882 5881 5881 5881 5881 5881 5881 5882 5882 5882 5882 5883 5884 5884 5885 5885 5885 5885 5885 5885 5885 5886 5887 5887 5887 5888 5889 5891 5893 5895 5896 5896 5897 5898 5899 5899 5899 5900 5901 5900 5900 5900 5899 5900 5901 5900 5900 5899 5897 5897 5897 5897 5897 5897 5897 5897 5897 5897 5897 5897 5897 5897 5897 5897 5898 5898 5899 5899 5900
5892 5891 5890 5890 5889 5888 5887 5886 5886 5885 5884 5884 5883 5883 5882 5882 5881 5881 5881 5881 5881 5880 5880 5880 5880 5880 5880 5881 5881 5881 5882 5883 5884 5885 5885 5884 5885 5885 5885 5885 5886 5886 5887 5887 5887 5888 5890 5893 5894 5895 5897 5897 5898 5898 5899 5899 5900 5901 5900 5900 5900 5900 5901 5901 5900 5900 5899 5898 5898 5898 5898 5898 5898 5898 5897 5897 5897 5897 5897 5897 5897 5897 5897 5898 5898 5899 5899 5899
5891 5890 5890 5889 5888 5888 5887 5886 5885 5885 5884 5883 5883 5882 5882 5881 5881 5880 5880 5880 5880 5880 5879 5879 5879 5879 5879 5880 5880 5880 5881 5883 5884 5884 5884 5884 5884 5884 5884 5885 5885 5886 5886 5886 5887 5887 5889 5891 5893 5895 5896 5897 5897 5897 5898 5899 5899 5900 5900 5901 5900 5900 5901 5901 5900 5899 5899 5899 5898 5898 5898 5898 5898 5898 5898 5898 5898 5897 5897 5897 5897 5897 5897 5898 5899 5899 5899 5899
5890 5890 5889 5888 5888 5887 5886 5886 5885 5884 5884 5883 5882 5882 5881 5881 5880 5880 5879 5879 5879 5879 5879 5878 5878 5878 5878 5878 5879 5880 5881 5882 5883 5883 5883 5884 5884 5884 5884 5885 5885 5885 5886 5886 5887 5887 5888 5890 5891 5893 5894 5895 5895 5896 5897 5899 5899 5900 5900 5900 5901 5902 5900 5900 5901 5900 5899 5899 5898 5899 5899 5899 5899 5899 5899 5898 5898 5897 5897 5897 5897 5898 5897 5898 5899 5899 5899 5899
5890 5889 5888 5888 5887 5886 5885 5885 5884 5884 5883 5882 5882 5881 5881 5880 5880 5879 5879 5878 5878 5878 5878 5878 5878 5877 5877 5877 5878 5879 5880 5881 5882 5882 5883 5883 5883 5883 5884 5884 5885 5885 5885 5886 5887 5887 5888 5889 5890 5891 5892 5893 5894 5896 5898 5899 5900 5901 5901 5900 5901 5902 5901 5900 5901 5900 5899 5899 5898 5899 5899 5899 5899 5899 5899 5899 5898 5897 5897 5897 5897 5898 5897 5897 5898 5899 5899 5899
5889 5888 5887 5887 5886 5885 5885 5884 5883 5883 5882 5882 5881 5880 5880 5880 5879 5879 5878 5878 5877 5877 5877 5877 5877 5877 5876 5876 5876 5878 5878 5880 5881 5881 5881 5882 5882 5883 5883 5884 5884 5885 5886 5886 5887 5888 5888 5888 5890 5891 5891 5892 5893 5895 5898 5900 5901 5901 5902 5901 5901 5902 5901 5900 5900 5900 5900 5899 5899 5899 5899 5899 5899 5899 5899 5899 5898 5896 5897 5897 5897 5898 5898 5898 5898 5898 5898 5899
5888 5887 5887 5886 5885 5885 5884 5883 5883 5882 5881 5881 5880 5880 5879 5879 5879 5878 5878 5877 5877 5877 5876 5876 5876 5876 5876 5876 5876 5876 5877 5879 5880 5879 5879 5881 5881 5881 5882 5883 5883 5884 5885 5886 5887 5887 5888 5889 5890 5890 5891 5892 5892 5894 5897 5901 5903 5902 5902 5901 5901 5901 5901 5901 5900 5900 5900 5899 5900 5899 5899 5899 5898 5898 5898 5898 5898 5897 5897 5897 5897 5898 5898 5898 5898 5898 5899 5899
5887 5886 5886 5885 5884 5884 5883 5883 5882 5881 5881 5880 5879 5879 5878 5878 5878 5878 5877 5877 5876 5876 5876 5875 5875 5875 5875 5875 5875 5875 5875 5877 5877 5876 5878 5880 5880 5880 5881 5882 5883 5883 5884 5885 5886 5887 5887 5889 5889 5890 5891 5891 5891 5894 5897 5902 5905 5906 5905 5902 5901 5901 5901 5901 5901 5900 5899 5899 5900 5899 5899 5899 5898 5898 5898 5898 5898 5897 5897 5898 5897 5898 5898 5898 5899 5899 5899 5899
5886 5886 5885 5884 5883 5883 5882 5882 5881 5881 5880 5879 5878 5878 5877 5877 5877 5877 5876 5876 5876 5875 5875 5875 5874 5874 5874 5874 5874 5874 5874 5875 5875 5876 5877 5879 5879 5879 5880 5881 5882 5882 5883 5884 5885 5886 5887 5888 5889 5889 5889 5889 5889 5892 5897 5902 5905 5907 5907 5904 5901 5902 5901 5901 5901 5901 5900 5899 5900 5900 5899 5899 5899 5898 5898 5898 5898 5897 5897 5898 5897 5897 5898 5898 5898 5899 5899 5899
5885 5884 5884 5883 5882 5882 5881 5881 5880 5880 5879 5878 5878 5877 5876 5876 5876 5875 5875 5875 5875 5875 5874 5874 5874 5874 5873 5873 5874 5873 5873 5874 5874 5875 5876 5877 5878 5879 5879 5880 5881 5881 5882 5883 5884 5885 5886 5888 5888 5887 5887 5887 5887 5891 5895 5900 5903 5904 5907 5904 5901 5901 5901 5901 5901 5901 5900 5899 5899 5900 5900 5899 5899 5898 5898 5898 5898 5897 5897 5898 5898 5898 5898 5898 5899 5899 5899 5899
5883 5883 5882 5882 5881 5880 5880 5879 5879 5878 5878 5877 5876 5876 5875 5875 5874 5874 5874 5873 5873 5873 5873 5873 5873 5873 5873 5873 5873 5872 5872 5873 5873 5873 5874 5875 5876 5877 5878 5879 5879 5880 5881 5882 5883 5884 5885 5886 5886 5886 5887 5887 5888 5891 5893 5895 5897 5900 5904 5904 5902 5901 5901 5901 5900 5900 5900 5900 5899 5899 5900 5899 5899 5899 5898 5898 5898 5897 5897 5898 5898 5898 5898 5898 5899 5899 5900 5899
5881 5881 5880 5880 5879 5879 5879 5878 5877 5877 5876 5876 5875 5875 5874 5874 5873 5873 5872 5872 5872 5872 5872 5872 5871 5871 5871 5871 5872 5871 5870 5871 5872 5872 5873 5873 5874 5875 5877 5877 5878 5879 5880 5881 5881 5882 5883 5883 5883 5885 5886 5886 5888 5890 5890 5893 5894 5895 5898 5901 5903 5903 5901 5900 5900 5900 5901 5900 5898 5899 5900 5899 5899 5899 5898 5898 5898 5898 5897 5898 5897 5898 5898 5899 5899 5899 5900 5900
5879 5878 5878 5878 5877 5877 5877 5876 5876 5875 5875 5874 5874 5873 5872 5872 5872 5871 5871 5871 5870 5870 5870 5870 5870 5870 5870 5870 5871 5870 5869 5870 5870 5871 5871 5872 5873 5873 5875 5876 5876 5877 5878 5879 5880 5881 5881 5882 5882 5884 5885 5886 5888 5888 5887 5890 5892 5892 5895 5897 5900 5903 5903 5902 5900 5900 5902 5901 5898 5899 5899 5898 5899 5899 5898 5898 5898 5898 5897 5898 5898 5898 5898 5899 5899 5899 5900 5900
5876 5876 5875 5875 5875 5875 5874 5874 5874 5873 5873 5873 5872 5872 5871 5870 5870 5870 5869 5869 5869 5868 5868 5868 5868 5868 5868 5868 5869 5869 5869 5868 5869 5869 5870 5871 5871 5872 5872 5873 5875 5876 5877 5878 5879 5880 5880 5880 5881 5882 5884 5886 5887 5887 5886 5887 5890 5892 5895 5897 5899 5900 5903 5903 5901 5902 5903 5901 5898 5899 5899 5898 5898 5898 5898 5898 5898 5898 5898 5898 5898 5898 5898 5899 5900 5900 5900 5900
5873 5873 5873 5872 5872 5872 5872 5871 5871 5871 5871 5870 5870 5870 5869 5869 5868 5868 5867 5867 5867 5867 5866 5866 5866 5866 5866 5866 5867 5867 5868 5867 5867 5868 5868 5869 5870 5870 5871 5871 5873 5874 5875 5876 5877 5878 5879 5879 5880 5881 5883 5884 5885 5886 5887 5887 5889 5891 5893 5898 5901 5901 5902 5902 5902 5903 5903 5899 5897 5898 5899 5898 5898 5898 5898 5898 5898 5898 5898 5898 5898 5898 5899 5899 5900 5900 5900 5900
5871 5870 5870 5870 5869 5869 5869 5869 5868 5868 5868 5868 5867 5867 5867 5867 5866 5866 5866 5865 5865 5865 5864 5864 5864 5865 5864 5865 5865 5865 5866 5866 5865 5866 5867 5868 5868 5869 5869 5869 5870 5871 5872 5873 5874 5876 5877 5877 5878 5880 5881 5882 5884 5885 5885 5885 5888 5891 5892 5895 5899 5902 5903 5902 5901 5902 5901 5897 5897 5898 5898 5898 5898 5898 5898 5897 5898 5898 5898 5898 5898 5898 5899 5899 5900 5900 5900 5901
5868 5867 5867 5866 5866 5867 5867 5866 5866 5865 5865 5865 5864 5864 5864 5864 5864 5863 5864 5863 5863 5862 5862 5862 5863 5862 5861 5863 5864 5862 5863 5864 5863 5864 5865 5865 5866 5867 5867 5867 5868 5869 5870 5870 5872 5874 5875 5876 5877 5878 5879 5880 5881 5882 5882 5885 5888 5891 5893 5895 5897 5900 5904 5904 5901 5901 5899 5896 5897 5897 5897 5897 5897 5897 5897 5897 5897 5897 5897 5898 5898 5898 5899 5899 5900 5900 5901 5901
5865 5864 5863 5863 5863 5863 5864 5863 5863 5862 5862 5862 5862 5861 5861 5861 5861 5861 5861 5861 5860 5860 5859 5860 5861 5860 5859 5861 5861 5860 5862 5863 5861 5862 5862 5863 5864 5865 5865 5866 5866 5866 5867 5868 5870 5871 5872 5874 5874 5875 5877 5878 5879 5881 5882 5886 5889 5891 5894 5896 5897 5899 5903 5904 5901 5899 5898 5896 5896 5897 5896 5896 5897 5896 5896 5897 5896 5897 5897 5897 5898 5898 5898 5899 5900 5900 5901 5901
5862 5861 5860 5859 5859 5859 5860 5860 5859 5859 5859 5858 5858 5858 5858 5858 5857 5858 5859 5858 5857 5858 5857 5857 5859 5858 5856 5858 5859 5859 5860 5861 5860 5860 5860 5861 5862 5863 5863 5864 5864 5864 5865 5866 5867 5868 5869 5870 5870 5873 5876 5878 5879 5881 5883 5886 5888 5890 5893 5896 5899 5900 5902 5902 5901 5897 5896 5896 5895 5896 5896 5895 5896 5896 5895 5896 5896 5896 5897 5897 5897 5898 5898 5899 5899 5900 5901 5901
5859 5858 5857 5856 5855 5855 5856 5856 5856 5856 5855 5854 5854 5854 5855 5855 5854 5854 5856 5855 5855 5854 5854 5855 5856 5856 5854 5854 5857 5857 5857 5858 5858 5857 5857 5859 5859 5860 5861 5862 5862 5863 5863 5864 5864 5865 5865 5866 5869 5873 5876 5878 5879 5880 5882 5884 5886 5888 5889 5894 5898 5900 5901 5901 5901 5897 5894 5896 5896 5894 5895 5894 5895 5896 5895 5895 5895 5895 5896 5896 5897 5897 5898 5898 5899 5899 5900 5901
5855 5855 5854 5853 5852 5851 5852 5852 5852 5852 5851 5851 5851 5850 5851 5851 5850 5851 5851 5853 5852 5851 5852 5853 5852 5854 5852 5851 5854 5855 5854 5856 5856 5855 5855 5856 5857 5858 5858 5859 5860 5861 5861 5861 5861 5862 5862 5865 5870 5873 5874 5876 5877 5879 5880 5882 5884 5886 5886 5890 5895 5898 5900 5900 5901 5898 5892 5895 5897 5894 5894 5894 5893 5895 5894 5894 5895 5895 5895 5896 5897 5897 5897 5898 5899 5899 5900 5901
5852 5851 5851 5850 5848 5848 5848 5848 5848 5848 5848 5847 5847 5847 5847 5847 5847 5847 5847 5849 5850 5847 5848 5850 5849 5851 5851 5849 5850 5851 5852 5853 5852 5851 5853 5854 5855 5855 5855 5857 5857 5858 5858 5858 5859 5860 5861 5865 5868 5870 5871 5872 5874 5876 5878 5879 5881 5883 5884 5887 5890 5894 5898 5899 5900 5900 5893 5892 5896 5894 5893 5893 5892 5892 5892 5893 5894 5894 5894 5895 5896 5896 5897 5898 5898 5899 5900 5900
5847 5847 5847 5846 5845 5843 5844 5844 5844 5844 5844 5843 5844 5843 5843 5843 5843 5843 5843 5844 5847 5845 5844 5845 5847 5848 5849 5847 5846 5848 5850 5850 5848 5849 5850 5852 5852 5851 5853 5855 5854 5854 5856 5856 5857 5858 5860 5863 5864 5865 5867 5869 5871 5873 5875 5876 5877 5880 5882 5884 5886 5890 5894 5897 5900 5900 5893 5890 5893 5892 5891 5891 5891 5891 5891 5891 5892 5893 5893 5894 5895 5896 5896 5897 5898 5899 5899 5900
5843 5843 5843 5842 5841 5839 5839 5840 5839 5839 5840 5839 5840 5840 5839 5839 5839 5839 5839 5839 5842 5843 5840 5841 5843 5845 5846 5844 5843 5845 5845 5845 5846 5847 5847 5849 5849 5848 5850 5851 5851 5852 5853 5854 5854 5855 5858 5860 5860 5861 5863 5865 5867 5869 5871 5874 5875 5877 5879 5882 5885 5888 5892 5895 5898 5898 5892 5888 5889 5890 5889 5889 5889 5890 5890 5890 5890 5891 5892 5893 5893 5894 5896 5897 5898 5898 5899 5899
5837 5838 5838 5838 5837 5836 5834 5835 5835 5835 5835 5836 5836 5836 5835 5836 5835 5835 5835 5834 5836 5838 5837 5838 5839 5841 5842 5842 5841 5841 5839 5841 5845 5844 5843 5846 5846 5845 5846 5847 5848 5850 5851 5851 5852 5852 5855 5857 5857 5858 5860 5862 5863 5865 5868 5871 5873 5874 5876 5881 5883 5885 5889 5891 5894 5896 5891 5887 5888 5888 5887 5888 5888 5888 5888 5889 5889 5889 5890 5891 5892 5893 5894 5896 5897 5898 5899 5900
5832 5832 5833 5832 5833 5832 5830 5830 5831 5830 5830 5832 5832 5831 5832 5832 5831 5831 5831 5829 5831 5832 5833 5835 5836 5836 5838 5838 5838 5837 5836 5838 5841 5840 5840 5843 5843 5842 5842 5843 5845 5847 5848 5848 5848 5850 5853 5854 5854 5855 5857 5858 5859 5861 5865 5868 5870 5871 5876 5880 5881 5882 5885 5887 5891 5892 5889 5888 5887 5886 5885 5885 5885 5886 5887 5887 5887 5887 5888 5889 5890 5891 5892 5894 5896 5896 5897 5898
5826 5826 5827 5827 5827 5828 5827 5825 5825 5825 5826 5827 5827 5827 5827 5827 5827 5827 5827 5825 5826 5827 5829 5832 5832 5831 5832 5832 5835 5835 5833 5834 5836 5837 5838 5838 5839 5839 5839 5841 5843 5844 5845 5844 5844 5848 5851 5851 5852 5853 5854 5855 5856 5859 5863 5865 5866 5870 5875 5878 5880 5881 5882 5884 5888 5889 5889 5888 5885 5883 5882 5881 5881 5883 5884 5884 5884 5885 5886 5887 5888 5889 5891 5892 5894 5895 5895 5896
5820 5820 5821 5821 5820 5821 5822 5820 5819 5819 5820 5821 5821 5822 5822 5822 5822 5823 5821 5821 5823 5824 5824 5825 5826 5827 5827 5827 5830 5831 5830 5831 5832 5832 5833 5834 5836 5836 5836 5839 5839 5839 5840 5840 5841 5844 5846 5848 5849 5850 5851 5853 5855 5857 5859 5861 5863 5868 5873 5875 5878 5880 5880 5882 5883 5886 5888 5886 5883 5882 5880 5878 5878 5880 5881 5881 5881 5882 5884 5885 5887 5888 5889 5890 5892 5893 5893 5894
5813 5813 5813 5814 5813 5814 5815 5814 5814 5813 5813 5814 5814 5816 5817 5817 5817 5817 5815 5817 5821 5821 5818 5818 5821 5822 5823 5823 5825 5826 5826 5829 5827 5825 5829 5832 5832 5832 5833 5835 5835 5835 5836 5836 5838 5840 5842 5845 5846 5846 5848 5851 5853 5854 5855 5857 5860 5866 5870 5872 5875 5877 5879 5880 5879 5882 5882 5879 5879 5882 5880 5877 5875 5875 5877 5878 5879 5881 5882 5883 5884 5885 5886 5888 5890 5890 5891 5893
5806 5805 5805 5806 5806 5807 5806 5806 5808 5807 5806 5807 5807 5808 5809 5811 5811 5809 5809 5814 5817 5815 5812 5814 5816 5817 5818 5819 5820 5821 5821 5824 5823 5819 5824 5828 5827 5827 5828 5830 5831 5831 5832 5832 5834 5837 5839 5840 5842 5843 5846 5847 5849 5850 5851 5854 5858 5861 5865 5868 5871 5873 5876 5877 5876 5877 5875 5873 5877 5880 5880 5875 5870 5871 5875 5876 5878 5881 5881 5881 5882 5883 5883 5886 5889 5890 5890 5891
5798 5797 5797 5797 5798 5799 5798 5798 5800 5800 5799 5800 5800 5800 5802 5803 5802 5802 5807 5811 5810 5809 5808 5807 5809 5810 5813 5814 5814 5815 5816 5818 5817 5816 5820 5823 5822 5823 5824 5826 5828 5828 5829 5830 5832 5834 5835 5837 5838 5840 5842 5844 5845 5846 5848 5850 5853 5856 5859 5863 5866 5868 5871 5871 5872 5872 5870 5871 5874 5877 5878 5873 5867 5870 5874 5874 5876 5878 5879 5880 5881 5881 5882 5883 5887 5888 5888 5889
5789 5789 5788 5788 5789 5790 5790 5789 5791 5791 5791 5792 5791 5793 5794 5793 5794 5799 5804 5805 5804 5805 5803 5800 5802 5804 5806 5809 5809 5809 5811 5812 5812 5812 5815 5817 5817 5818 5820 5822 5823 5823 5825 5827 5828 5829 5830 5832 5834 5834 5837 5840 5841 5842 5845 5846 5847 5849 5853 5857 5860 5862 5864 5865 5866 5868 5868 5870 5873 5875 5875 5869 5866 5868 5871 5872 5874 5875 5876 5878 5879 5880 5880 5881 5884 5885 5885 5886
5780 5780 5779 5779 5779 5780 5781 5780 5781 5781 5782 5783 5783 5784 5784 5784 5790 5795 5797 5797 5799 5801 5798 5795 5797 5797 5797 5801 5804 5804 5805 5806 5807 5807 5808 5811 5812 5812 5814 5816 5818 5819 5823 5823 5823 5824 5824 5826 5829 5831 5833 5836 5838 5840 5842 5843 5843 5845 5850 5853 5854 5856 5858 5860 5862 5864 5867 5869 5871 5871 5869 5865 5866 5867 5868 5870 5871 5872 5874 5876 5877 5877 5877 5879 5880 5881 5882 5884
5770 5770 5770 5769 5769 5770 5771 5771 5771 5772 5772 5773 5773 5774 5775 5779 5785 5788 5788 5790 5791 5794 5793 5792 5793 5792 5791 5793 5796 5799 5799 5799 5801 5802 5801 5804 5806 5807 5808 5812 5814 5815 5818 5818 5818 5820 5821 5821 5825 5829 5831 5832 5835 5838 5839 5840 5840 5843 5847 5848 5848 5851 5855 5857 5860 5863 5866 5866 5865 5866 5864 5864 5867 5867 5866 5868 5868 5870 5871 5873 5875 5874 5875 5877 5876 5878 5881 5882
5759 5759 5759 5759 5759 5759 5760 5760 5761 5761 5762 5763 5762 5764 5769 5774 5778 5778 5779 5782 5782 5785 5787 5786 5785 5786 5786 5787 5788 5791 5794 5794 5795 5795 5795 5797 5800 5802 5804 5806 5809 5810 5812 5814 5816 5817 5817 5819 5821 5824 5826 5827 5830 5833 5834 5835 5837 5840 5842 5841 5844 5850 5853 5855 5858 5860 5863 5861 5859 5861 5863 5865 5867 5865 5864 5864 5866 5868 5869 5870 5873 5871 5872 5874 5873 5875 5880 5881
5748 5749 5748 5747 5748 5749 5748 5750 5750 5749 5751 5751 5751 5757 5763 5766 5767 5768 5770 5773 5773 5775 5777 5777 5778 5779 5780 5782 5782 5784 5787 5788 5789 5788 5788 5789 5792 5796 5799 5801 5803 5805 5808 5811 5813 5814 5815 5816 5817 5818 5820 5823 5825 5828 5829 5831 5834 5836 5837 5838 5843 5848 5849 5850 5853 5855 5857 5854 5854 5858 5860 5862 5864 5862 5862 5862 5863 5865 5866 5867 5870 5870 5870 5872 5871 5872 5877 5879
5737 5738 5735 5733 5737 5737 5736 5738 5738 5737 5738 5738 5741 5750 5753 5754 5756 5759 5761 5762 5763 5765 5765 5767 5770 5771 5773 5775 5776 5779 5780 5780 5783 5784 5784 5783 5785 5789 5794 5796 5798 5800 5804 5807 5808 5810 5811 5813 5815 5814 5815 5817 5820 5822 5824 5826 5829 5832 5833 5836 5839 5841 5841 5843 5845 5849 5852 5850 5851 5855 5856 5858 5860 5860 5860 5860 5861 5863 5863 5864 5867 5868 5869 5870 5870 5870 5872 5875
5724 5725 5721 5720 5724 5724 5723 5725 5724 5724 5724 5726 5733 5739 5741 5743 5746 5748 5750 5751 5752 5753 5754 5758 5761 5762 5765 5767 5769 5773 5773 5773 5776 5778 5778 5778 5780 5782 5786 5790 5793 5794 5798 5801 5803 5805 5806 5808 5812 5812 5812 5813 5813 5814 5818 5822 5824 5827 5829 5832 5834 5835 5836 5838 5840 5844 5847 5847 5849 5852 5853 5853 5856 5859 5861 5860 5860 5860 5860 5862 5863 5867 5869 5869 5870 5869 5867 5871
5709 5712 5708 5707 5708 5708 5709 5711 5710 5710 5711 5715 5722 5726 5728 5731 5733 5735 5739 5741 5741 5743 5745 5749 5751 5752 5755 5759 5761 5765 5768 5769 5771 5771 5771 5773 5776 5777 5778 5782 5787 5789 5791 5794 5798 5802 5802 5802 5806 5811 5810 5807 5804 5806 5813 5818 5820 5821 5823 5825 5828 5830 5832 5835 5837 5839 5841 5842 5845 5848 5847 5849 5853 5857 5860 5861 5860 5857 5858 5861 5861 5863 5867 5868 5870 5871 5866 5869
5694 5696 5694 5692 5691 5690 5694 5696 5696 5697 5698 5702 5708 5711 5714 5717 5719 5723 5727 5728 5729 5732 5734 5737 5739 5741 5745 5749 5752 5756 5761 5763 5765 5766 5765 5766 5769 5772 5774 5775 5780 5784 5785 5786 5789 5795 5797 5796 5799 5805 5806 5802 5799 5803 5809 5813 5815 5817 5819 5821 5823 5826 5829 5830 5832 5835 5837 5837 5840 5843 5844 5846 5851 5854 5856 5859 5860 5856 5856 5860 5858 5858 5862 5863 5868 5872 5867 5867
5677 5680 5679 5677 5674 5674 5677 5680 5683 5683 5682 5688 5693 5696 5699 5703 5706 5710 5714 5715 5717 5720 5722 5724 5728 5731 5733 5738 5743 5746 5750 5753 5757 5760 5762 5762 5762 5765 5769 5771 5774 5778 5780 5780 5782 5787 5793 5793 5792 5797 5800 5800 5801 5802 5803 5806 5810 5813 5814 5817 5819 5821 5824 5825 5826 5830 5834 5835 5837 5840 5840 5842 5847 5851 5852 5855 5857 5856 5855 5856 5856 5856 5858 5859 5864 5868 5866 5866
5659 5663 5665 5661 5657 5659 5659 5662 5669 5668 5667 5674 5679 5680 5685 5689 5691 5696 5700 5702 5704 5708 5709 5711 5716 5720 5722 5727 5732 5734 5737 5741 5746 5752 5757 5758 5758 5759 5763 5767 5770 5773 5775 5775 5776 5779 5784 5787 5787 5789 5794 5798 5801 5801 5799 5799 5803 5805 5807 5811 5813 5814 5817 5821 5823 5826 5829 5831 5834 5835 5834 5837 5843 5847 5848 5850 5853 5854 5855 5854 5855 5856 5857 5858 5862 5864 5864 5864
5642 5647 5651 5647 5642 5643 5643 5647 5654 5654 5653 5659 5662 5665 5671 5674 5677 5682 5684 5687 5691 5694 5696 5699 5705 5709 5711 5715 5719 5722 5727 5730 5733 5740 5746 5751 5755 5756 5758 5762 5765 5767 5769 5771 5772 5772 5774 5778 5781 5782 5785 5790 5794 5795 5793 5793 5794 5797 5801 5805 5807 5810 5813 5816 5820 5823 5824 5824 5828 5830 5830 5834 5840 5843 5845 5846 5847 5851 5853 5852 5853 5855 5857 5858 5861 5862 5861 5860
5627 5630 5636 5635 5630 5628 5630 5634 5637 5637 5639 5643 5645 5650 5655 5657 5661 5666 5668 5672 5677 5680 5683 5687 5693 5697 5700 5703 5706 5710 5716 5718 5721 5728 5734 5740 5748 5753 5755 5757 5759 5761 5763 5766 5768 5768 5767 5770 5774 5775 5776 5780 5784 5787 5787 5788 5790 5793 5798 5801 5802 5805 5809 5811 5815 5818 5818 5819 5823 5825 5828 5834 5838 5840 5841 5842 5844 5847 5848 5848 5849 5853 5854 5856 5858 5858 5857 5857
5611 5614 5620 5621 5617 5616 5618 5620 5622 5623 5625 5626 5627 5633 5637 5639 5643 5647 5649 5654 5661 5667 5672 5676 5680 5684 5686 5690 5693 5697 5705 5710 5712 5718 5725 5731 5737 5744 5749 5754 5756 5756 5756 5759 5761 5762 5762 5764 5766 5768 5772 5775 5779 5784 5787 5787 5787 5789 5793 5797 5799 5800 5803 5806 5809 5810 5812 5816 5818 5820 5825 5831 5834 5837 5838 5839 5842 5844 5843 5843 5846 5849 5851 5852 5854 5854 5853 5853
5597 5600 5605 5605 5605 5606 5607 5608 5610 5611 5611 5610 5612 5618 5624 5627 5631 5635 5637 5640 5646 5653 5658 5662 5667 5670 5675 5682 5684 5686 5693 5700 5704 5709 5716 5722 5727 5734 5741 5746 5749 5748 5748 5751 5754 5756 5757 5758 5759 5761 5766 5770 5774 5779 5784 5786 5785 5785 5788 5791 5793 5796 5799 5801 5802 5804 5808 5812 5813 5816 5820 5824 5828 5833 5836 5836 5838 5841 5840 5839 5842 5846 5847 5849 5852 5851 5850 5850
5587 5589 5591 5590 5591 5596 5596 5596 5599 5599 5598 5599 5600 5605 5611 5616 5619 5625 5629 5632 5634 5635 5636 5640 5647 5652 5659 5665 5669 5671 5679 5687 5693 5701 5710 5716 5719 5725 5731 5737 5742 5742 5742 5745 5748 5750 5752 5753 5755 5756 5759 5765 5769 5772 5778 5782 5782 5783 5785 5787 5788 5790 5793 5795 5797 5800 5804 5804 5806 5812 5815 5817 5821 5826 5830 5832 5834 5836 5837 5836 5837 5841 5842 5844 5846 5845 5845 5846
5580 5579 5581 5580 5580 5583 5585 5586 5588 5588 5590 5592 5592 5595 5601 5604 5608 5614 5619 5622 5624 5623 5621 5622 5629 5633 5636 5641 5648 5655 5662 5667 5673 5684 5697 5704 5709 5713 5719 5727 5734 5736 5735 5738 5740 5742 5744 5746 5748 5751 5755 5760 5764 5765 5770 5775 5778 5781 5782 5783 5785 5786 5787 5790 5793 5796 5798 5798 5802 5809 5811 5812 5815 5819 5823 5827 5829 5831 5833 5832 5833 5834 5837 5840 5841 5840 5841 5842
5573 5571 5571 5572 5572 5574 5576 5578 5580 5581 5583 5585 5586 5589 5593 5595 5599 5604 5608 5611 5615 5617 5615 5614 5618 5621 5625 5631 5637 5639 5643 5647 5654 5666 5677 5685 5693 5700 5706 5714 5724 5728 5728 5729 5731 5732 5735 5737 5739 5745 5750 5755 5758 5760 5763 5767 5772 5776 5779 5779 5780 5782 5784 5785 5786 5790 5793 5795 5799 5804 5805 5805 5809 5813 5817 5820 5823 5824 5826 5827 5829 5829 5831 5835 5837 5837 5837 5838
5566 5565 5565 5565 5567 5570 5571 5572 5574 5575 5577 5579 5581 5583 5587 5589 5592 5595 5599 5603 5607 5611 5612 5611 5614 5618 5622 5627 5627 5625 5630 5639 5647 5656 5664 5670 5677 5686 5692 5699 5710 5718 5720 5720 5722 5725 5728 5731 5735 5739 5743 5747 5752 5756 5758 5762 5765 5768 5771 5773 5774 5776 5780 5783 5784 5784 5787 5790 5794 5797 5798 5800 5803 5807 5812 5816 5818 5819 5820 5822 5824 5826 5827 5829 5832 5834 5835 5836
5560 5561 5560 5560 5563 5566 5566 5567 5568 5570 5572 5574 5575 5577 5579 5581 5583 5585 5587 5591 5596 5602 5605 5605 5609 5614 5617 5619 5620 5621 5627 5633 5639 5648 5655 5661 5668 5675 5680 5686 5695 5705 5711 5714 5717 5720 5722 5725 5730 5733 5736 5741 5746 5750 5754 5758 5759 5757 5759 5765 5769 5773 5777 5782 5783 5781 5781 5785 5788 5790 5793 5797 5799 5802 5806 5810 5812 5813 5815 5817 5819 5822 5824 5825 5827 5828 5830 5833